Location: ???????
(55.4362°N, 38.1183°E)
Time: 17:26:21
(UTC+00:00)

Okean 1-7 Rocket - Pass Details

Date: 17 June 2021
Orbit: 616 x 649 km, 82.5° (Epoch: 29 July)

Event Time Altitude Azimuth Distance (km) Brightness Sun altitude
Exits shadow 21:50:10 11° 216° (SW) 1,936 5.6 -11.0°
Maximum altitude 21:54:15 45° 289° (WNW) 867 4.4 -11.0°
Drops below altitude 10° 21:58:32 10° 2° (N) 2,014 7.8 -10.9°
Sets 22:00:52 0° 9° (N) 2,921 9.3 -10.9°
